TimeEDT,TemperatureF,Dew PointF,Humidity,Sea Level PressureIn,VisibilityMPH,Wind Direction,Wind SpeedMPH,Gust SpeedMPH,PrecipitationIn,Events,Conditions,WindDirDegrees,DateUTC
12:15 AM,40.8,30.2,66,29.90,10.0,West,3.5,-,N/A,,Clear,270,2012-11-01 04:15:00
12:35 AM,42.8,29.7,60,29.90,10.0,West,4.6,-,N/A,,Clear,270,2012-11-01 04:35:00
12:55 AM,42.3,29.3,60,29.91,10.0,West,5.8,-,N/A,,Clear,260,2012-11-01 04:55:00
1:15 AM,42.3,29.3,60,29.91,10.0,West,4.6,-,N/A,,Clear,260,2012-11-01 05:15:00
1:35 AM,42.1,29.3,61,29.91,10.0,West,4.6,-,N/A,,Clear,260,2012-11-01 05:35:00
1:55 AM,42.4,29.5,60,29.91,10.0,West,4.6,-,N/A,,Clear,260,2012-11-01 05:55:00
2:15 AM,43.2,29.3,58,29.91,10.0,West,4.6,-,N/A,,Clear,270,2012-11-01 06:15:00
2:35 AM,43.0,29.1,58,29.91,10.0,West,4.6,-,N/A,,Clear,270,2012-11-01 06:35:00
2:55 AM,43.0,29.1,58,29.91,10.0,West,4.6,-,N/A,,Clear,270,2012-11-01 06:55:00
3:15 AM,41.2,29.3,63,29.91,10.0,Calm,Calm,-,N/A,,Clear,0,2012-11-01 07:15:00
3:35 AM,40.5,29.5,65,29.91,10.0,West,4.6,-,N/A,,Clear,270,2012-11-01 07:35:00
3:55 AM,41.0,29.3,63,29.91,10.0,West,5.8,-,N/A,,Clear,270,2012-11-01 07:55:00
4:15 AM,41.4,29.3,62,29.91,10.0,West,5.8,-,N/A,,Clear,270,2012-11-01 08:15:00
4:35 AM,41.2,29.1,62,29.91,10.0,West,5.8,-,N/A,,Clear,280,2012-11-01 08:35:00
4:55 AM,40.8,28.9,63,29.91,10.0,West,5.8,-,N/A,,Clear,280,2012-11-01 08:55:00
5:15 AM,39.6,28.9,66,29.91,10.0,West,5.8,-,N/A,,Clear,260,2012-11-01 09:15:00
5:35 AM,39.9,28.6,64,29.92,10.0,West,6.9,-,N/A,,Clear,270,2012-11-01 09:35:00
5:55 AM,41.0,28.0,60,29.92,10.0,West,4.6,-,N/A,,Clear,270,2012-11-01 09:55:00
6:15 AM,40.1,27.5,61,29.93,10.0,West,5.8,-,N/A,,Clear,270,2012-11-01 10:15:00
6:35 AM,40.6,27.0,58,29.93,10.0,West,3.5,-,N/A,,Clear,270,2012-11-01 10:35:00
6:55 AM,39.4,27.1,62,29.93,10.0,Calm,Calm,-,N/A,,Clear,0,2012-11-01 10:55:00
7:15 AM,40.1,27.1,60,29.94,10.0,West,4.6,-,N/A,,Clear,270,2012-11-01 11:15:00
7:35 AM,40.3,27.3,60,29.94,10.0,West,6.9,-,N/A,,Clear,270,2012-11-01 11:35:00
8:15 AM,40.5,27.3,59,29.94,10.0,West,6.9,-,N/A,,Clear,280,2012-11-01 12:15:00
8:35 AM,40.8,27.5,59,29.95,10.0,West,6.9,-,N/A,,Clear,280,2012-11-01 12:35:00
8:55 AM,42.3,28.2,58,29.96,10.0,West,5.8,-,N/A,,Clear,270,2012-11-01 12:55:00
9:15 AM,44.1,28.6,55,29.96,10.0,West,8.1,-,N/A,,Clear,270,2012-11-01 13:15:00
9:35 AM,45.9,28.8,51,29.97,10.0,West,8.1,-,N/A,,Clear,270,2012-11-01 13:35:00
9:55 AM,47.5,28.6,48,29.97,10.0,West,5.8,-,N/A,,Clear,270,2012-11-01 13:55:00
10:15 AM,49.3,28.2,44,29.97,10.0,West,10.4,-,N/A,,Clear,280,2012-11-01 14:15:00
10:35 AM,51.1,26.8,39,29.98,10.0,West,9.2,-,N/A,,Clear,270,2012-11-01 14:35:00
10:55 AM,52.5,25.9,36,29.98,10.0,WNW,13.8,17.3,N/A,,Clear,290,2012-11-01 14:55:00
11:15 AM,53.1,25.0,34,29.98,10.0,WNW,15.0,-,N/A,,Clear,290,2012-11-01 15:15:00
11:35 AM,54.7,25.3,32,29.98,10.0,WNW,13.8,18.4,N/A,,Clear,290,2012-11-01 15:35:00
11:55 AM,55.9,25.0,30,29.98,10.0,WNW,12.7,-,N/A,,Clear,290,2012-11-01 15:55:00
12:15 PM,56.7,25.7,30,29.98,10.0,WNW,13.8,18.4,N/A,,Clear,300,2012-11-01 16:15:00
12:35 PM,58.1,26.2,30,29.97,10.0,West,9.2,20.7,N/A,,Clear,270,2012-11-01 16:35:00
12:55 PM,59.4,25.9,28,29.96,10.0,West,11.5,-,N/A,,Clear,270,2012-11-01 16:55:00
1:15 PM,60.3,24.6,26,29.94,10.0,West,10.4,17.3,N/A,,Clear,280,2012-11-01 17:15:00
1:35 PM,60.8,24.6,25,29.94,10.0,West,11.5,17.3,N/A,,Clear,270,2012-11-01 17:35:00
2:15 PM,61.9,24.6,24,29.93,10.0,West,13.8,19.6,N/A,,Clear,260,2012-11-01 18:15:00
2:35 PM,62.6,25.2,24,29.92,10.0,West,9.2,20.7,N/A,,Clear,270,2012-11-01 18:35:00
2:55 PM,62.6,24.8,24,29.92,10.0,West,17.3,20.7,N/A,,Clear,280,2012-11-01 18:55:00
3:15 PM,63.1,25.0,23,29.91,10.0,West,12.7,21.9,N/A,,Clear,270,2012-11-01 19:15:00
3:35 PM,63.9,25.5,23,29.91,10.0,West,12.7,21.9,N/A,,Clear,280,2012-11-01 19:35:00
3:55 PM,64.2,25.2,23,29.91,10.0,West,12.7,18.4,N/A,,Clear,280,2012-11-01 19:55:00
4:15 PM,63.9,25.2,23,29.91,10.0,West,10.4,19.6,N/A,,Clear,270,2012-11-01 20:15:00
4:55 PM,63.9,25.2,23,29.91,10.0,West,11.5,18.4,N/A,,Clear,270,2012-11-01 20:55:00
5:15 PM,63.1,24.4,23,29.91,10.0,West,12.7,16.1,N/A,,Clear,280,2012-11-01 21:15:00
5:35 PM,63.0,24.6,23,29.91,10.0,North,-9999.0,-,N/A,,Clear,0,2012-11-01 21:35:00
5:55 PM,62.1,24.3,24,29.92,10.0,West,6.9,-,N/A,,Clear,260,2012-11-01 21:55:00
6:15 PM,60.8,23.4,24,29.92,10.0,West,6.9,-,N/A,,Clear,260,2012-11-01 22:15:00
6:35 PM,59.5,22.1,24,29.93,10.0,West,3.5,-,N/A,,Clear,270,2012-11-01 22:35:00
6:55 PM,57.6,22.1,25,29.94,10.0,WSW,8.1,-,N/A,,Clear,250,2012-11-01 22:55:00
7:15 PM,54.3,22.8,29,29.95,10.0,West,6.9,-,N/A,,Clear,260,2012-11-01 23:15:00
7:35 PM,55.6,23.0,28,29.96,10.0,West,6.9,-,N/A,,Clear,260,2012-11-01 23:35:00
7:55 PM,53.4,23.0,31,29.96,10.0,West,5.8,-,N/A,,Clear,260,2012-11-01 23:55:00
8:15 PM,53.6,23.2,31,29.96,10.0,West,6.9,-,N/A,,Clear,260,2012-11-02 00:15:00
8:35 PM,52.9,23.0,31,29.97,10.0,West,5.8,-,N/A,,Clear,270,2012-11-02 00:35:00
8:55 PM,52.9,23.9,32,29.97,10.0,West,4.6,-,N/A,,Clear,270,2012-11-02 00:55:00
9:15 PM,52.0,24.3,34,29.98,10.0,West,5.8,-,N/A,,Clear,270,2012-11-02 01:15:00
9:35 PM,51.3,24.6,35,29.99,10.0,West,4.6,-,N/A,,Clear,270,2012-11-02 01:35:00
9:55 PM,50.9,24.8,36,29.99,10.0,West,6.9,-,N/A,,Clear,280,2012-11-02 01:55:00
10:15 PM,51.1,25.3,37,30.00,10.0,West,3.5,-,N/A,,Clear,270,2012-11-02 02:15:00
10:35 PM,49.8,25.5,39,30.00,10.0,West,5.8,-,N/A,,Clear,270,2012-11-02 02:35:00
10:55 PM,49.3,25.7,40,30.00,10.0,West,6.9,-,N/A,,Clear,280,2012-11-02 02:55:00
11:15 PM,48.7,25.7,41,30.01,10.0,WNW,4.6,-,N/A,,Clear,290,2012-11-02 03:15:00
11:35 PM,48.0,25.7,42,30.01,10.0,West,3.5,-,N/A,,Clear,270,2012-11-02 03:35:00
11:55 PM,47.1,26.1,44,30.01,10.0,West,4.6,-,N/A,,Clear,280,2012-11-02 03:55:00